Location: Unspecified
(0.0000°N, 0.0000°E)
Time: 00:43:18
(UTC+00:00)

Hubble Space Telescope - Pass Details

Date: 21 March 2017
Orbit: 538 x 542 km, 28.5° (Epoch: 28 March)

Event Time Altitude Azimuth Distance (km) Brightness Sun altitude
Exits shadow 05:24:37 - 309° (NW) 1,916 3.1 -10.6°
Reaches altitude 10° 05:25:56 10° 326° (NW) 1,779 3.1 -10.3°
Maximum altitude 05:26:27 10° 333° (NNW) 1,767 3.1 -10.2°
Drops below altitude 10° 05:26:58 10° 341° (NNW) 1,779 3.2 -10.1°
Sets 05:31:26 0° 25° (NNE) 2,668 4.7 -8.9°
